Flag for Belgium Weather past 2 weeks in Leuven, Belgium

Now
37 °F

Passing clouds.


Feels Like: 31 °F
Forecast: 33 / 38 °F
Wind: 8 mph from Northwest

Location: Brussels National Airport

Current Time: Feb 1, 2015 at 7:23:33 PM

Latest Report: Feb 1, 2015 at 6:50 PM


Visibility: N/A

Pressure: 29.42 "Hg

Humidity: 87%

Dew point: 34 °F

Location of LeuvenLocation

Historic Weather in Leuven — Graph

°F

Leuven temperature yesterday

Maximum temperature yesterday: 39 °F (at 1:20 PM)
Minimum temperature yesterday: 32 °F (at 5:50 AM)
Average temperature yesterday: 34 °F

Past Weeks' High & Low Weather Summary

 TemperatureHumidityPressure
High46 °F (Jan 26, 12:50 PM)100% (Jan 19, 1:50 AM)30.45 "Hg (Jan 19, 1:50 AM)
Low27 °F (Jan 22, 12:50 AM)70% (Jan 18, 6:50 PM)28.74 "Hg (Jan 29, 8:50 PM)
Average35 °F87%29.80 "Hg
* Reported Jan 17 6:20 PM — Feb 1 6:20 PM, Leuven, Weather by CustomWeather, © 2014

Note: Actual official high and low records may vary slightly from our data, if they occured in-between our weather recording intervals... More about our weather records

Advertising

Leuven weather history for previous 24 hours

 ConditionsComfort  
Time TempWeatherWind HumidityBarometerVisibility
6:20 PM
Feb 1
39 °FScattered showers. Partly cloudy.8 mph81%29.39 "HgN/A
5:50 PM39 °FSprinkles. Partly cloudy.10 mph87%29.39 "HgN/A
5:20 PM39 °FBroken clouds.7 mph81%29.36 "HgN/A
4:50 PM39 °FSprinkles. Broken clouds.14 mph81%29.33 "HgN/A
4:20 PM39 °FBroken clouds.13 mph81%29.30 "HgN/A
3:50 PM41 °FBroken clouds.15 mph76%29.27 "HgN/A
3:20 PM39 °FBroken clouds.8 mph87%29.24 "HgN/A
2:50 PM39 °FBroken clouds.10 mph87%29.24 "HgN/A
2:20 PM39 °FLight rain. Broken clouds.15 mph87%29.21 "HgN/A
1:50 PM39 °FLight rain. Broken clouds.14 mph87%29.21 "HgN/A
1:20 PM37 °FLight rain. Broken clouds.13 mph93%29.21 "Hg5 mi
12:50 PM37 °FRain. Broken clouds.14 mph87%29.21 "Hg3 mi
12:20 PM37 °FLight rain. Broken clouds.14 mph87%29.21 "Hg4 mi
11:50 AM36 °FDrizzle. Broken clouds.15 mph87%29.21 "Hg4 mi
11:20 AM36 °FLight rain. Broken clouds.14 mph87%29.21 "Hg4 mi
10:50 AM36 °FRain. Broken clouds.14 mph87%29.21 "Hg4 mi
10:20 AM36 °FLight rain. Broken clouds.13 mph87%29.21 "Hg5 mi
9:50 AM36 °FLight rain. Broken clouds.12 mph87%29.21 "Hg6 mi
9:20 AM36 °FLight rain. Broken clouds.13 mph87%29.21 "Hg6 mi
8:50 AM36 °FLight rain. Broken clouds.9 mph87%29.21 "HgN/A
8:20 AM36 °FSprinkles. Broken clouds.12 mph87%29.21 "HgN/A
7:50 AM36 °FPartly cloudy.9 mph87%29.21 "HgN/A
7:20 AM36 °FLight rain. Partly cloudy.10 mph87%29.21 "Hg6 mi
6:50 AM36 °FPassing clouds.14 mph81%29.18 "HgN/A
6:20 AM34 °FPassing clouds.10 mph87%29.18 "HgN/A
5:50 AM34 °FPassing clouds.8 mph87%29.18 "HgN/A
5:20 AM32 °FLight rain. Passing clouds.8 mph93%29.18 "Hg4 mi
4:50 AM32 °FRain. Partly cloudy.9 mph93%29.18 "Hg2 mi
4:20 AM32 °FRain. Passing clouds.13 mph93%29.15 "Hg1 mi
3:50 AM34 °FPassing clouds.10 mph93%29.15 "Hg4 mi
3:20 AM34 °FLight rain. Passing clouds.8 mph87%29.15 "Hg4 mi
2:50 AM34 °FPassing clouds.9 mph93%29.15 "Hg5 mi
2:20 AM34 °FPassing clouds.9 mph87%29.15 "Hg5 mi
1:50 AM34 °FPassing clouds.8 mph87%29.15 "Hg5 mi
1:20 AM34 °FPassing clouds.7 mph87%29.15 "Hg5 mi
12:50 AM32 °FPassing clouds.7 mph87%29.12 "Hg5 mi
12:20 AM32 °FPassing clouds.8 mph93%29.12 "Hg5 mi
11:50 PM
Jan 31
32 °FPassing clouds.6 mph87%29.12 "Hg5 mi
11:20 PM32 °FPassing clouds.6 mph87%29.12 "Hg6 mi
10:50 PM32 °FPassing clouds.6 mph87%29.12 "Hg6 mi
10:20 PM34 °FPassing clouds.6 mph87%29.12 "Hg6 mi
9:50 PM34 °FPassing clouds.5 mph87%29.12 "HgN/A
9:20 PM34 °FPassing clouds.6 mph93%29.12 "HgN/A
8:50 PM34 °FPassing clouds.5 mph87%29.12 "HgN/A
8:20 PM34 °FPassing clouds.5 mph93%29.09 "HgN/A
7:50 PM32 °FPassing clouds.5 mph93%29.09 "HgN/A
7:20 PM34 °FPassing clouds.3 mph87%29.09 "HgN/A
Weather by CustomWeather, © 2014

See weather overviewHow to use our weather pages